Weather History for Green Bay, WI

Change the Weather History Date:

Wednesday, December 5, 2012

  Actual Average Record
Temperature  
Mean Temperature 28 °F 25 °F  
Max Temperature 34 °F 32 °F 64 °F (2001)
Min Temperature 21 °F 18 °F -2 °F (1976)
Degree Days  
Heating Degree Days 37 40  
Month to date heating degree days 120 195  
Since 1 July heating degree days 1753 1935  
Cooling Degree Days 0 0  
Month to date cooling degree days 0 0  
Year to date cooling degree days 786 398  
Moisture  
Dew Point 19 °F    
Average Humidity 71    
Maximum Humidity 85    
Minimum Humidity 56    
Precipitation  
Precipitation 0.00 in 0.06 in 1.01 in (1982)
Month to date precipitation 0.16 0.30  
Year to date precipitation 29.15 28.31  
Snow  
Snow 0.00 in 0.40 in 4.90 in (1991)
Month to date snowfall 0.0 1.9  
Since 1 July snowfall 1.5 6.1  
Snow Depth 0.00 in    
Sea Level Pressure  
Sea Level Pressure 30.38 in    
Wind  
Wind Speed 6 mph (South)    
Max Wind Speed 10 mph    
Max Gust Speed 15 mph    
Visibility 10 miles    
Events      
T = Trace of Precipitation, MM = Missing Value Source: NWS Daily Summary

Daily Weather History Graph

Daily Weather History Graph

Search for Another Location

Airport:

Trip Planner

Search our weather history database for the weather conditions in past years. The results will help you decide how hot, cold, wet, or windy it might be!

Date:

Astronomy

Dec. 05, 2012 Rise Set
Actual Time 7:13 AM CST 4:13 PM CST
Civil Twilight 6:40 AM CST 4:46 PM CST
Nautical Twilight 6:04 AM CST 5:22 PM CST
Astronomical Twilight 5:28 AM CST 5:57 PM CST
Moon 11:14 PM CST (12/5) 11:26 AM CST (12/5)
Length of Visible Light 10h 05m
Length of Day
8h 59m
Waning Gibbous, 59% of the Moon is Illuminated
Dec 5
Waning Gibbous
Dec 6
Last Quarter
Dec 13
New
Dec 19
First Quarter
Dec 28
Full

Hourly Weather History & Observations

Time (CST) Temp. Windchill Dew Point Humidity Pressure Visibility Wind Dir Wind Speed Gust Speed Precip Events Conditions
12:53 AM 23.0 °F 14.7 °F 14.0 °F 68% 30.36 in 10.0 mi WNW 6.9 mph - N/A   Clear
1:53 AM 21.9 °F 12.5 °F 14.0 °F 72% 30.40 in 10.0 mi WNW 8.1 mph - N/A   Clear
2:53 AM 21.9 °F 11.7 °F 14.0 °F 72% 30.41 in 10.0 mi WNW 9.2 mph - N/A   Clear
3:53 AM 21.0 °F 12.4 °F 14.0 °F 74% 30.42 in 10.0 mi WNW 6.9 mph - N/A   Clear
4:53 AM 21.0 °F 11.4 °F 14.0 °F 74% 30.44 in 10.0 mi WNW 8.1 mph - N/A   Clear
5:53 AM 21.0 °F 10.6 °F 14.0 °F 74% 30.46 in 10.0 mi NW 9.2 mph - N/A   Clear
6:53 AM 21.0 °F 10.6 °F 14.0 °F 74% 30.47 in 10.0 mi NW 9.2 mph - N/A   Clear
8:53 AM 25.0 °F 18.1 °F 16.0 °F 69% 30.47 in 10.0 mi NNE 5.8 mph - N/A   Clear
9:53 AM 28.9 °F 21.9 °F 16.0 °F 58% 30.47 in 10.0 mi NE 6.9 mph - N/A   Clear
10:53 AM 30.9 °F 24.3 °F 19.0 °F 61% 30.47 in 10.0 mi NE 6.9 mph - N/A   Clear
11:53 AM 32.0 °F 27.5 °F 19.9 °F 61% 30.46 in 10.0 mi NE 4.6 mph - N/A   Clear
12:53 PM 33.1 °F 27.7 °F 19.0 °F 56% 30.43 in 10.0 mi East 5.8 mph - N/A   Clear
1:53 PM 34.0 °F 28.8 °F 21.0 °F 59% 30.40 in 10.0 mi SSE 5.8 mph - N/A   Clear
2:53 PM 33.1 °F 26.9 °F 21.0 °F 61% 30.38 in 10.0 mi SSE 6.9 mph - N/A   Clear
3:53 PM 32.0 °F 26.4 °F 23.0 °F 69% 30.38 in 10.0 mi SSE 5.8 mph - N/A   Clear
4:53 PM 30.0 °F 24.1 °F 21.9 °F 72% 30.35 in 10.0 mi SE 5.8 mph - N/A   Clear
5:53 PM 28.9 °F 23.9 °F 23.0 °F 78% 30.35 in 10.0 mi SSE 4.6 mph - N/A   Clear
6:53 PM 28.0 °F 22.8 °F 23.0 °F 81% 30.32 in 10.0 mi SSE 4.6 mph - N/A   Clear
7:53 PM 28.9 °F 22.8 °F 24.1 °F 82% 30.30 in 10.0 mi South 5.8 mph - N/A   Clear
8:53 PM 30.0 °F 26.5 °F 24.1 °F 79% 30.28 in 10.0 mi SSW 3.5 mph - N/A   Scattered Clouds
9:53 PM 30.0 °F 25.2 °F 24.1 °F 79% 30.25 in 10.0 mi South 4.6 mph - N/A   Scattered Clouds
10:53 PM 30.9 °F 25.2 °F 25.0 °F 79% 30.24 in 10.0 mi South 5.8 mph - N/A   Clear
11:53 PM 32.0 °F 26.4 °F 27.0 °F 82% 30.21 in 10.0 mi South 5.8 mph - N/A   Overcast